Weather History for Cook, MN

Change the Weather History Date:

Monday, April 29, 2013

  Actual Average Record
Temperature  
Mean Temperature 46 °F -  
Max Temperature 64 °F 57 °F 78 °F (2001)
Min Temperature 28 °F 30 °F 23 °F (2008)
Degree Days  
Heating Degree Days 19    
Moisture  
Dew Point 27 °F    
Average Humidity 51    
Maximum Humidity 93    
Minimum Humidity 19    
Precipitation  
Precipitation 0.00 in - - ()
Sea Level Pressure  
Sea Level Pressure 29.74 in    
Wind  
Wind Speed 2 mph (South)    
Max Wind Speed 9 mph    
Max Gust Speed -    
Visibility 10 miles    
Events      
Averages and records for this station are not official NWS values.
T = Trace of Precipitation, MM = Missing Value Source: NWS Daily Summary

Daily Weather History Graph

Daily Weather History Graph

Search for Another Location

Airport:

Trip Planner

Search our weather history database for the weather conditions in past years. The results will help you decide how hot, cold, wet, or windy it might be!

Date:

Astronomy

Apr. 29, 2013 Rise Set
Actual Time 5:55 AM CDT 8:21 PM CDT
Civil Twilight 5:21 AM CDT 8:55 PM CDT
Nautical Twilight 4:38 AM CDT 9:38 PM CDT
Astronomical Twilight 3:49 AM CDT 10:28 PM CDT
Moon No Moon Rise 9:09 AM CDT (4/29)
Length of Visible Light 15h 33m
Length of Day
14h 25m
Waning Gibbous, 80% of the Moon is Illuminated
Apr 29
Waning Gibbous
May 2
Last Quarter
May 9
New
May 17
First Quarter
May 24
Full

Hourly Weather History & Observations

Time (CDT) Temp. Windchill Dew Point Humidity Pressure Visibility Wind Dir Wind Speed Gust Speed Precip Events Conditions
12:17 AM 42.8 °F 41.1 °F 35.6 °F 76% 29.76 in 10.0 mi West 3.5 mph - N/A   Clear
12:36 AM 41.0 °F - 35.6 °F 81% 29.77 in 10.0 mi Calm Calm - N/A   Clear
12:56 AM 39.2 °F 37.0 °F 33.8 °F 81% 29.78 in 10.0 mi West 3.5 mph - N/A   Clear
1:17 AM 37.4 °F 34.9 °F 33.8 °F 87% 29.79 in 10.0 mi West 3.5 mph - N/A   Clear
1:36 AM 39.2 °F 35.9 °F 30.2 °F 70% 29.79 in 10.0 mi West 4.6 mph - N/A   Clear
1:57 AM 37.4 °F 34.9 °F 30.2 °F 75% 29.79 in 10.0 mi West 3.5 mph - N/A   Clear
2:17 AM 37.4 °F 33.8 °F 30.2 °F 75% 29.79 in 10.0 mi West 4.6 mph - N/A   Clear
2:36 AM 35.6 °F - 28.4 °F 75% 29.80 in 10.0 mi Calm Calm - N/A   Clear
2:57 AM 35.6 °F 32.8 °F 28.4 °F 75% 29.80 in 10.0 mi WSW 3.5 mph - N/A   Clear
3:16 AM 35.6 °F - 28.4 °F 75% 29.80 in 10.0 mi Calm Calm - N/A   Clear
3:36 AM 33.8 °F - 28.4 °F 81% 29.81 in 10.0 mi Calm Calm - N/A   Clear
3:57 AM 32.0 °F - 26.6 °F 80% 29.82 in 10.0 mi Calm Calm - N/A   Clear
4:16 AM 30.2 °F - 26.6 °F 86% 29.82 in 10.0 mi Calm Calm - N/A   Clear
4:36 AM 30.2 °F - 26.6 °F 86% 29.83 in 10.0 mi Calm Calm - N/A   Clear
4:56 AM 28.4 °F - 26.6 °F 93% 29.83 in 10.0 mi Calm Calm - N/A   Clear
5:16 AM 30.2 °F - 26.6 °F 86% 29.83 in 10.0 mi Calm Calm - N/A   Clear
5:37 AM 28.4 °F - 26.6 °F 93% 29.84 in 10.0 mi Calm Calm - N/A   Clear
5:56 AM 28.4 °F - 26.6 °F 93% 29.84 in 10.0 mi Calm Calm - N/A   Clear
6:17 AM 28.4 °F - 26.6 °F 93% 29.84 in 10.0 mi Calm Calm - N/A   Clear
6:37 AM 28.4 °F - 26.6 °F 93% 29.84 in 10.0 mi Calm Calm - N/A   Clear
6:56 AM 28.4 °F - 26.6 °F 93% 29.84 in 10.0 mi Calm Calm - N/A   Clear
7:17 AM 32.0 °F - 26.6 °F 80% 29.84 in 10.0 mi Calm Calm - N/A   Clear
7:36 AM 33.8 °F - 28.4 °F 81% 29.84 in 10.0 mi Calm Calm - N/A   Clear
7:56 AM 35.6 °F - 28.4 °F 75% 29.84 in 10.0 mi Calm Calm - N/A   Clear
8:17 AM 37.4 °F - 28.4 °F 70% 29.83 in 10.0 mi Calm Calm - N/A   Clear
8:36 AM 39.2 °F - 30.2 °F 70% 29.83 in 10.0 mi Calm Calm - N/A   Clear
8:56 AM 42.8 °F - 30.2 °F 61% 29.83 in 10.0 mi Calm Calm - N/A   Clear
9:17 AM 42.8 °F - 30.2 °F 61% 29.82 in 10.0 mi Calm Calm - N/A   Clear
9:37 AM 44.6 °F - 30.2 °F 57% 29.82 in 10.0 mi Calm Calm - N/A   Clear
9:57 AM 46.4 °F - 30.2 °F 53% 29.82 in 10.0 mi Calm Calm - N/A   Clear
10:16 AM 48.2 °F - 32.0 °F 54% 29.81 in 10.0 mi Calm Calm - N/A   Clear
10:37 AM 48.2 °F - 30.2 °F 50% 29.79 in 10.0 mi Calm Calm - N/A   Clear
10:57 AM 51.8 °F - 30.2 °F 44% 29.78 in 10.0 mi East 4.6 mph - N/A   Clear
11:16 AM 53.6 °F - 30.2 °F 41% 29.77 in 10.0 mi Calm Calm - N/A   Clear
11:37 AM 53.6 °F - 30.2 °F 41% 29.77 in 10.0 mi SE 3.5 mph - N/A   Clear
11:57 AM 55.4 °F - 26.6 °F 33% 29.77 in 10.0 mi SE 3.5 mph - N/A   Clear
12:16 PM 55.4 °F - 26.6 °F 33% 29.76 in 10.0 mi Calm Calm - N/A   Clear
12:37 PM 57.2 °F - 26.6 °F 31% 29.76 in 10.0 mi Calm Calm - N/A   Clear
12:57 PM 57.2 °F - 24.8 °F 29% 29.75 in 10.0 mi Calm Calm - N/A   Clear
1:16 PM 59.0 °F - 24.8 °F 27% 29.75 in 10.0 mi South 5.8 mph - N/A   Clear
1:36 PM 59.0 °F - 26.6 °F 29% 29.73 in 10.0 mi South 3.5 mph - N/A   Clear
1:57 PM 60.8 °F - 24.8 °F 25% 29.73 in 10.0 mi South 5.8 mph - N/A   Clear
2:16 PM 60.8 °F - 24.8 °F 25% 29.72 in 10.0 mi SE 3.5 mph - N/A   Clear
2:36 PM 60.8 °F - 24.8 °F 25% 29.71 in 10.0 mi South 8.1 mph - N/A   Clear
2:57 PM 62.6 °F - 23.0 °F 22% 29.70 in 10.0 mi SSE 6.9 mph - N/A   Clear
3:16 PM 62.6 °F - 24.8 °F 24% 29.69 in 10.0 mi South 4.6 mph - N/A   Clear
3:36 PM 62.6 °F - 24.8 °F 24% 29.68 in 10.0 mi SSE 6.9 mph - N/A   Clear
3:57 PM 64.4 °F - 24.8 °F 22% 29.66 in 10.0 mi SSE 9.2 mph - N/A   Clear
4:16 PM 64.4 °F - 24.8 °F 22% 29.66 in 10.0 mi South 9.2 mph - N/A   Clear
4:36 PM 64.4 °F - 23.0 °F 21% 29.65 in 10.0 mi South 9.2 mph - N/A   Clear
4:57 PM 64.4 °F - 21.2 °F 19% 29.65 in 10.0 mi SSE 6.9 mph - N/A   Clear
5:16 PM 64.4 °F - 24.8 °F 22% 29.64 in 10.0 mi South 4.6 mph - N/A   Clear
5:36 PM 64.4 °F - 23.0 °F 21% 29.64 in 10.0 mi SSE 3.5 mph - N/A   Clear
5:57 PM 64.4 °F - 21.2 °F 19% 29.64 in 10.0 mi SSE 4.6 mph - N/A   Clear
6:16 PM 64.4 °F - 23.0 °F 21% 29.63 in 10.0 mi South 3.5 mph - N/A   Clear
6:36 PM 62.6 °F - 23.0 °F 22% 29.63 in 10.0 mi South 5.8 mph - N/A   Clear
6:57 PM 62.6 °F - 24.8 °F 24% 29.64 in 10.0 mi SSE 8.1 mph - N/A   Clear
7:16 PM 60.8 °F - 24.8 °F 25% 29.64 in 10.0 mi South 9.2 mph - N/A   Clear
7:36 PM 60.8 °F - 24.8 °F 25% 29.64 in 10.0 mi SSE 5.8 mph - N/A   Clear
7:57 PM 57.2 °F - 24.8 °F 29% 29.64 in 10.0 mi SE 3.5 mph - N/A   Clear
8:16 PM 55.4 °F - 24.8 °F 31% 29.64 in 10.0 mi Calm Calm - N/A   Clear
8:37 PM 53.6 °F - 24.8 °F 33% 29.64 in 10.0 mi Calm Calm - N/A   Clear
8:57 PM 51.8 °F - 24.8 °F 35% 29.64 in 10.0 mi Calm Calm - N/A   Clear
9:16 PM 48.2 °F - 24.8 °F 40% 29.65 in 10.0 mi Calm Calm - N/A   Clear
9:37 PM 48.2 °F - 24.8 °F 40% 29.64 in 10.0 mi East 3.5 mph - N/A   Clear
9:57 PM 51.8 °F - 26.6 °F 38% 29.64 in 10.0 mi SE 3.5 mph - N/A   Clear
10:37 PM 51.8 °F - 28.4 °F 41% 29.63 in 10.0 mi Calm Calm - N/A   Clear
10:57 PM 50.0 °F - 28.4 °F 43% 29.63 in 10.0 mi Calm Calm - N/A   Clear
11:16 PM 50.0 °F - 28.4 °F 43% 29.63 in 10.0 mi Calm Calm - N/A   Clear
11:37 PM 48.2 °F - 30.2 °F 50% 29.63 in 10.0 mi East 3.5 mph - N/A   Clear
11:57 PM 48.2 °F - 32.0 °F 54% 29.62 in 10.0 mi East 3.5 mph - N/A   Clear